[[{"header":{"parameterUnit":"m.s-1","parameterCategory":1,"la1":30.2991,"la2":30.254,"lo1":-89.0895,"lo2":-89.0444,"dy":0.0017,"dx":0.0017,"nx":28,"ny":28,"refTime":"2024-04-25T03:00:00:Z","depth":0,"parameterNumber":2,"parameterNumberName":"U-component_of_WINDS"},"data":[0,0,0,0,0,0,0,0,0,0,0,0,0,0,0,0,0,0,0,0,0,0,0,0,0,0,0,0,0,0,0,0,0,0,0,0,0,0,0,0,0,0,0,0,0,0,0,0,0,0,0,0,0,0,0,0,0,0,-3.4818,-3.4819,0,-3.4914,-3.4915,-3.4917,-3.492,-3.4919,-3.4918,-3.4917,-3.5017,-3.5021,-3.5025,0,0,0,0,0,0,0,0,0,0,0,0,0,-3.4638,-3.4642,-3.4818,-3.4819,-3.482,-3.4914,-3.4915,-3.4917,-3.4921,-3.4919,-3.4918,-3.4917,-3.5016,-3.502,-3.5025,0,0,0,0,0,0,0,0,0,0,0,0,0,-3.4724,-3.4643,-3.4818,-3.4833,-3.4836,-3.4914,-3.4916,-3.4917,-3.4921,-3.4919,-3.4917,-3.4916,-3.5015,-3.502,-3.5026,-3.5095,0,0,-3.5043,-3.5045,0,0,0,0,0,0,0,0,-3.4719,-3.473,-3.483,-3.4832,-3.4835,-3.4904,-3.4889,-3.4977,-3.4921,-3.4889,-3.4917,-3.4915,-3.4981,-3.4989,-3.5011,-3.5099,-3.5104,-3.5043,-3.5047,-3.5049,-3.5051,0,0,0,0,0,0,0,-3.4713,-3.4726,-3.4856,-3.4831,-3.4835,-3.4836,-3.4846,-3.4906,-3.4943,-3.4891,-3.4892,-3.4903,-3.4982,-3.5006,-3.5013,-3.5105,-3.5043,-3.5048,-3.5051,-3.5054,-3.5255,-3.5257,0,0,0,0,0,0,-3.4704,-3.4721,-3.4853,-3.4859,-3.4772,-3.4841,-3.4852,-3.4883,-3.4943,-3.495,-3.4905,-3.4903,-3.4997,-3.5007,-3.5017,-3.5101,-3.5049,-3.5054,-3.5057,-3.5253,-3.5256,-3.5258,0,0,0,0,0,0,-3.47,-3.4715,-3.4849,-3.479,-3.4807,-3.4846,-3.4881,-3.4886,-3.491,-3.4953,-3.496,-3.4922,-3.4996,-3.5009,-3.5075,-3.5105,-3.5057,-3.5062,-3.5251,-3.5254,-3.5257,-3.5271,0,0,0,0,0,0,-3.4695,-3.4714,-3.474,-3.4791,-3.481,-3.4905,-3.4883,-3.4889,-3.4919,-3.4918,-3.497,-3.4978,-3.4996,-3.5067,-3.5081,-3.5112,-3.5066,-3.5248,-3.5252,-3.5256,-3.5268,-3.5274,-3.5279,0,0,0,0,0,-3.4688,-3.4741,-3.4742,-3.4757,-3.4844,-3.4907,-3.4918,-3.4938,-3.4922,-3.4949,-3.4976,-3.4976,-3.51,-3.5074,-3.5089,-3.5122,-3.5246,-3.5251,-3.5255,-3.5265,-3.5273,-3.5279,0,0,0,0,0,0,-3.4693,-3.4748,-3.4749,-3.482,-3.4858,-3.4907,-3.4942,-3.4945,-3.4989,-3.4987,-3.5009,-3.5021,-3.5086,-3.5111,-3.5081,-3.5193,-3.5171,-3.5179,-3.5173,-3.5181,-3.5186,-3.5178,-3.5071,0,0,0,0,0,-3.4702,-3.4748,-3.4794,-3.4852,-3.4871,-3.4903,-3.4931,-3.4943,-3.4984,-3.5001,-3.5033,-3.5074,-3.5122,-3.5153,-3.52,-3.5272,-3.5283,-3.5303,-3.5308,-3.5313,-3.5319,-3.5358,-3.5367,-3.5272,-3.5272,-3.5272,0,0,-3.4722,-3.4757,-3.4785,-3.4853,-3.4885,-3.4932,-3.4917,-3.4968,-3.5003,-3.5009,-3.5073,-3.5098,-3.5145,-3.5214,-3.5247,-3.5237,-3.5348,-3.5318,-3.5322,-3.5325,-3.5364,-3.5373,-3.5381,-3.5275,-3.5275,-3.5274,0,0,-3.4781,-3.4813,-3.4864,-3.4896,-3.4944,-3.4965,-3.4978,-3.5026,-3.5043,-3.5108,-3.5113,-3.5156,-3.5238,-3.5271,-3.5299,-3.5372,-3.5373,-3.5386,-3.5415,-3.5454,-3.5461,-3.5468,-3.5493,-3.5501,-3.5393,-3.5393,-3.5393,0,-3.48,-3.4871,-3.4891,-3.4941,-3.4971,-3.4978,-3.503,-3.5061,-3.5121,-3.5142,-3.5131,-3.5234,-3.5266,-3.5343,-3.5361,-3.5383,-3.5398,-3.538,-3.5458,-3.5465,-3.5472,-3.5496,-3.5505,-3.5394,-3.5394,-3.5394,-3.5393,0,-3.489,-3.494,-3.4976,-3.5033,-3.5067,-3.5119,-3.5147,-3.5179,-3.5188,-3.521,-3.5276,-3.5315,-3.537,-3.5389,-3.5399,-3.5468,-3.546,-3.5453,-3.5432,-3.5482,-3.5505,-3.5514,-3.5396,-3.5395,-3.5395,-3.5395,0,0,-3.4955,-3.5023,-3.5036,-3.5062,-3.5115,-3.5154,-3.5206,-3.5259,-3.5285,-3.5328,-3.5372,-3.5441,-3.5436,-3.5467,-3.5481,-3.5514,-3.5568,-3.5504,-3.5505,-3.5513,-3.5646,-3.5649,-3.566,-3.557,-3.5572,-3.5574,-3.5641,0,-3.5019,-3.511,-3.513,-3.5209,-3.5254,-3.5262,-3.5307,-3.5345,-3.5368,-3.5411,-3.5436,-3.5485,-3.5474,-3.5493,-3.5527,-3.5554,-3.5595,-3.555,-3.5611,-3.5613,-3.5597,-3.5672,-3.5676,-3.5738,-3.5651,-3.5652,-3.5653,0,-3.5106,-3.5149,-3.5232,-3.528,-3.53,-3.534,-3.5389,-3.543,-3.5474,-3.5488,-3.5523,-3.5533,-3.5588,-3.5565,-3.564,-3.5609,-3.5636,-3.5653,-3.5656,-3.5661,-3.5635,-3.5678,-3.5758,-3.5767,-3.5668,-3.5667,-3.5666,0,-3.5143,-3.5222,-3.5282,-3.5305,-3.5362,-3.5389,-3.5415,-3.5456,-3.5487,-3.5531,-3.5551,-3.5601,-3.5628,-3.5667,-3.569,-3.5672,-3.5764,-3.5743,-3.5777,-3.5776,-3.5794,-3.5793,-3.5879,-3.5814,-3.5814,-3.5814,-3.5813,0,-3.5212,-3.5262,-3.5299,-3.5336,-3.5393,-3.5415,-3.5471,-3.5496,-3.5534,-3.5576,-3.5587,-3.5626,-3.5655,-3.5699,-3.5718,-3.5777,-3.5789,-3.5802,-3.5806,-3.58,-3.5798,-3.5817,-3.5812,-3.5816,-3.5815,-3.5815,-3.5815,0,-3.5262,-3.5289,-3.5355,-3.5403,-3.5417,-3.5456,-3.5498,-3.5534,-3.5557,-3.561,-3.5624,-3.5661,-3.5712,-3.574,-3.5805,-3.5818,-3.5884,-3.5886,-3.5869,-3.587,-3.5902,-3.5898,-3.6001,-3.6016,-3.5942,-3.5943,-3.5943,0,-3.5304,-3.5342,-3.5395,-3.5423,-3.5449,-3.5495,-3.5526,-3.555,-3.5582,-3.5635,-3.5665,-3.5717,-3.576,-3.5842,-3.5875,-3.5925,-3.5928,-3.5961,-3.5935,-3.5928,-3.5927,-3.5923,-3.5927,-3.5965,-3.5965,-3.5966,-3.5966,0,-3.5374,-3.5385,-3.5429,-3.5478,-3.5514,-3.5554,-3.5593,-3.5616,-3.5647,-3.5683,-3.5735,-3.5769,-3.5835,-3.5886,-3.5939,-3.5966,-3.5971,-3.5974,-3.5984,-3.5978,-3.5965,-3.5971,-3.5879,-3.5971,-3.5971,-3.5971,-3.597,-3.597,-3.5421,-3.5455,-3.5497,-3.5546,-3.5578,-3.5614,-3.565,-3.5678,-3.5722,-3.5777,-3.5789,-3.5845,-3.5888,-3.5958,-3.5987,-3.6031,-3.6024,-3.6039,-3.6043,-3.6046,-3.6046,-3.596,-3.6041,-3.6041,-3.604,-3.604,-3.604,0,-3.549,-3.5518,-3.5562,-3.5616,-3.5655,-3.5657,-3.57,-3.5732,-3.578,-3.582,-3.5862,-3.5922,-3.5973,-3.6009,-3.6061,-3.6089,-3.6093,-3.6102,-3.6099,-3.6105,-3.605,-3.6035,-3.6097,-3.6097,-3.6097,-3.6097,-3.6097,-3.6097,-3.5531,-3.5589,-3.5606,-3.568,-3.5708,-3.5761,-3.5786,-3.582,-3.5851,-3.5918,-3.5959,-3.5983,-3.6022,-3.6076,-3.6122,-3.6132,-3.6149,-3.6158,-3.6167,-3.6115,-3.6109,-3.6103,-3.6089,-3.6162,-3.6162,-3.6219,-3.6219,-3.622]},{"header":{"parameterUnit":"m.s-1","parameterCategory":1,"la1":30.2991,"la2":30.254,"lo1":-89.0895,"lo2":-89.0444,"dy":0.0017,"dx":0.0017,"nx":28,"ny":28,"refTime":"2024-04-25T03:00:00:Z","depth":0,"parameterNumber":3,"parameterNumberName":"V-component_of_WINDS"},"data":[0,0,0,0,0,0,0,0,0,0,0,0,0,0,0,0,0,0,0,0,0,0,0,0,0,0,0,0,0,0,0,0,0,0,0,0,0,0,0,0,0,0,0,0,0,0,0,0,0,0,0,0,0,0,0,0,0,0,5.4279,5.4279,0,5.4275,5.4275,5.4274,5.4192,5.419,5.4188,5.4186,5.4181,5.4182,5.4184,0,0,0,0,0,0,0,0,0,0,0,0,0,5.4216,5.4217,5.4279,5.4279,5.4279,5.4275,5.4275,5.4274,5.4193,5.419,5.4188,5.4185,5.418,5.4182,5.4184,0,0,0,0,0,0,0,0,0,0,0,0,0,5.423,5.4218,5.4279,5.4237,5.4234,5.4275,5.4275,5.4274,5.4193,5.419,5.4187,5.4184,5.4179,5.4182,5.4185,5.4265,0,0,5.4193,5.4194,0,0,0,0,0,0,0,0,5.423,5.4233,5.4243,5.424,5.4236,5.4231,5.425,5.4271,5.4194,5.4209,5.4186,5.4182,5.42,5.4201,5.4207,5.4264,5.4264,5.4193,5.4195,5.4196,5.4197,0,0,0,0,0,0,0,5.4229,5.4233,5.4277,5.4244,5.4239,5.4219,5.4218,5.4254,5.4222,5.4207,5.4201,5.4202,5.4197,5.4204,5.4206,5.4264,5.4193,5.4196,5.4197,5.4198,5.4388,5.4392,0,0,0,0,0,0,5.4234,5.4232,5.4277,5.4277,5.4225,5.4223,5.4221,5.4236,5.4221,5.4216,5.4204,5.4198,5.4201,5.4203,5.4205,5.4298,5.4196,5.4199,5.42,5.4385,5.4389,5.4393,0,0,0,0,0,0,5.4233,5.4238,5.4277,5.4253,5.4256,5.4227,5.4244,5.4237,5.4244,5.4219,5.4213,5.4218,5.4199,5.4202,5.4251,5.4297,5.42,5.4202,5.4381,5.4386,5.4391,5.4485,0,0,0,0,0,0,5.4231,5.4238,5.4268,5.4254,5.4258,5.4323,5.4247,5.4239,5.4249,5.4241,5.423,5.4225,5.4196,5.4247,5.4254,5.4299,5.4204,5.4377,5.4383,5.4389,5.4478,5.4493,5.4506,0,0,0,0,0,5.4229,5.4294,5.427,5.4276,5.4295,5.4326,5.4328,5.4294,5.4253,5.4283,5.4268,5.4225,5.4292,5.4253,5.4259,5.4306,5.4373,5.4381,5.4389,5.4472,5.449,5.4506,0,0,0,0,0,0,5.4313,5.4292,5.4265,5.4327,5.4329,5.4312,5.4348,5.4314,5.4327,5.4318,5.4276,5.4274,5.433,5.4323,5.4281,5.4384,5.4325,5.4335,5.4386,5.4403,5.4417,5.4417,5.4207,0,0,0,0,0,5.434,5.4367,5.4346,5.4404,5.4406,5.4378,5.439,5.4364,5.4363,5.4364,5.4351,5.4353,5.4374,5.4388,5.4406,5.4477,5.4474,5.4513,5.4527,5.4539,5.4547,5.4585,5.4602,5.4418,5.4418,5.4418,0,0,5.4393,5.4385,5.4404,5.4421,5.4419,5.4448,5.4378,5.4412,5.4433,5.4368,5.4414,5.4406,5.4404,5.4465,5.4491,5.4461,5.4597,5.4548,5.4558,5.456,5.4594,5.4612,5.4627,5.4423,5.4422,5.4421,0,0,5.4506,5.4503,5.455,5.4551,5.455,5.4531,5.4543,5.4531,5.4523,5.4569,5.4521,5.4546,5.4583,5.4584,5.459,5.4706,5.4668,5.4713,5.4786,5.4824,5.4838,5.4851,5.4892,5.4908,5.4722,5.4722,5.4722,0,5.4572,5.4615,5.4579,5.4616,5.4625,5.457,5.4618,5.462,5.4625,5.4632,5.4599,5.4645,5.464,5.4701,5.473,5.4736,5.4748,5.4713,5.4839,5.4851,5.4862,5.4902,5.4917,5.4728,5.4727,5.4726,5.4726,0,5.4697,5.4728,5.4766,5.4774,5.4787,5.483,5.4801,5.4818,5.4792,5.4777,5.4825,5.4818,5.4833,5.4846,5.482,5.4904,5.4885,5.4847,5.4786,5.4886,5.4922,5.4937,5.4735,5.4733,5.4732,5.473,0,0,5.486,5.4849,5.4864,5.4867,5.4864,5.4886,5.4927,5.4944,5.496,5.4966,5.4999,5.5033,5.4997,5.5004,5.4978,5.5011,5.5104,5.4968,5.4967,5.4993,5.5196,5.5225,5.5243,5.508,5.5082,5.5085,5.5196,0,5.4969,5.5038,5.5009,5.5081,5.5109,5.5058,5.5094,5.5095,5.5083,5.5105,5.509,5.5115,5.5066,5.507,5.5101,5.5086,5.5144,5.5078,5.511,5.5111,5.5111,5.5262,5.5293,5.5398,5.521,5.5213,5.5214,0,5.5105,5.5118,5.5193,5.5186,5.5197,5.5229,5.5243,5.5265,5.5266,5.5255,5.5264,5.5231,5.527,5.5212,5.5266,5.5222,5.5234,5.5229,5.5232,5.5233,5.5168,5.5267,5.5431,5.5447,5.5236,5.5235,5.5233,0,5.5217,5.5253,5.5303,5.5308,5.53,5.5325,5.5323,5.5321,5.5333,5.5345,5.5353,5.537,5.5379,5.5392,5.5365,5.5325,5.5423,5.5362,5.5415,5.5416,5.5437,5.5436,5.5605,5.5446,5.5445,5.5445,5.5445,0,5.5341,5.5389,5.5353,5.5384,5.5437,5.5403,5.5456,5.5448,5.5448,5.5476,5.5433,5.5461,5.5423,5.5448,5.5427,5.5475,5.548,5.5471,5.5465,5.5475,5.5476,5.5481,5.5473,5.5449,5.5448,5.5448,5.5447,0,5.5473,5.5452,5.5503,5.5493,5.5492,5.5531,5.5522,5.555,5.5536,5.5573,5.5579,5.5556,5.5583,5.5557,5.5582,5.5568,5.5633,5.5616,5.5633,5.5628,5.5682,5.5677,5.586,5.5882,5.5709,5.5711,5.5712,0,5.5554,5.559,5.5585,5.5601,5.5602,5.5629,5.5642,5.5611,5.5626,5.5632,5.566,5.5683,5.5699,5.5744,5.5729,5.5748,5.5731,5.5794,5.5733,5.5743,5.5732,5.573,5.5733,5.5806,5.5808,5.581,5.5811,0,5.5699,5.5687,5.5708,5.5726,5.5743,5.5756,5.5764,5.578,5.5748,5.5768,5.5795,5.5808,5.5834,5.5858,5.5872,5.587,5.5836,5.5831,5.5843,5.5853,5.5862,5.5858,5.5666,5.5826,5.5824,5.5823,5.5823,5.5822,5.5807,5.5838,5.5839,5.5865,5.5869,5.5879,5.5905,5.5895,5.5917,5.5936,5.5917,5.595,5.5951,5.5968,5.597,5.5995,5.5969,5.5988,5.5992,5.5998,5.6006,5.5859,5.5998,5.5998,5.5997,5.5997,5.5996,0,5.595,5.5949,5.5973,5.5988,5.6008,5.5976,5.5984,5.6003,5.6033,5.6038,5.6056,5.6088,5.6111,5.6099,5.6119,5.6142,5.6127,5.6148,5.6146,5.6146,5.6028,5.6015,5.6161,5.6161,5.6161,5.616,5.616,5.616,5.6026,5.6076,5.6065,5.6117,5.6116,5.6149,5.6157,5.6166,5.617,5.6208,5.6227,5.622,5.6218,5.6238,5.6258,5.6254,5.6263,5.6291,5.6281,5.6171,5.6154,5.6139,5.6126,5.6293,5.6293,5.6397,5.6398,5.6399]}]]